Home > Weather > Split > Past weeks

Flag for Croatia Past Weather in Split, Croatia — Yesterday and Last 2 Weeks

Now
81 °F

Passing clouds.


Feels Like: 81 °F
Forecast: 70 / 88 °F
Wind: 7 mph from Northeast

Location: Split/Marjan

Current Time: Aug 24, 2016 at 10:53:25 AM

Latest Report: Aug 24, 2016 at 10:00 AM


Visibility: 22 mi

Pressure: 30.06 "Hg

Humidity: 38%

Dew Point: 53 °F

Location of SplitLocation

Past Weather in Split — Graph

°F

Split Temperature Yesterday

Maximum temperature yesterday: 80 °F (at 4:00 PM)
Minimum temperature yesterday: 70 °F (at 2:00 AM)
Average temperature yesterday: 76 °F

High & Low Weather Summary for the Past Weeks

 TemperatureHumidityPressure
High89 °F (Aug 20, 3:00 PM)87% (Aug 22, 5:00 AM)30.18 "Hg (Aug 22, 5:00 AM)
Low63 °F (Aug 22, 5:00 AM)25% (Aug 12, 5:00 PM)29.81 "Hg (Aug 18, 5:00 PM)
Average76 °F50%29.98 "Hg
* Reported Aug 9 9:00 AM — Aug 24 8:00 AM, Split, Weather by CustomWeather, © 2016

Note: Actual official high and low records may vary slightly from our data, if they occured in-between our weather recording intervals... More about our weather records

Advertising

Split Weather History for the Previous 24 Hours

Scroll right to see more
 ConditionsComfort  
Time TempWeatherWind HumidityBarometerVisibility
8:00 AM
Wed, Aug 24
76 °FScattered clouds.8 mph43%30.06 "Hg19 mi
7:00 AM75 °FScattered clouds.9 mph48%30.05 "Hg22 mi
6:00 AM74 °FPassing clouds.8 mph47%30.06 "Hg22 mi
5:00 AM74 °FPassing clouds.9 mph49%30.05 "Hg12 mi
2:00 AM74 °FClear.7 mph47%30.06 "Hg12 mi
1:00 AMN/APassing clouds.N/AN/AN/A2 mi
11:00 PM
Tue, Aug 23
73 °FClear.7 mph47%30.06 "Hg12 mi
10:00 PM74 °FClear.12 mph46%30.05 "Hg12 mi
9:00 PM74 °FPassing clouds.12 mph45%30.05 "Hg12 mi
8:00 PM75 °FPassing clouds.12 mph45%30.03 "Hg22 mi
5:00 PM80 °FPartly sunny.9 mph39%30.01 "Hg31 mi
4:00 PM80 °FScattered clouds.7 mph40%30.01 "Hg31 mi
2:00 PM80 °FScattered clouds.10 mph41%30.01 "Hg31 mi
1:00 PM79 °FPartly sunny.10 mph40%30.04 "Hg31 mi
12:00 PM79 °FScattered clouds.10 mph40%30.04 "Hg31 mi
11:00 AM78 °FScattered clouds.8 mph42%30.06 "Hg31 mi
10:00 AM76 °FPartly sunny.7 mph46%30.06 "Hg31 mi
Weather by CustomWeather, © 2016

See weather overviewHow to use our weather pages